Location: Unspecified
(0.0000°N, 0.0000°E)
Time: 01:36:21

Meteor 2-8 Rocket - Visible Passes

Search period start: 09 October 2015 00:00
Search period end: 19 October 2015 00:00
Orbit: 936 x 959 km, 82.5° (Epoch: 08 October)

Date Brightness Start Highest point End Pass type
(mag) Time Alt. Az. Time Alt. Az. Time Alt. Az.
16 Oct 6.2 21:34:47 10° SSE 21:36:07 17° SSE 21:36:07 17° SSE visible
17 Oct 5.7 21:51:19 10° S 21:54:00 28° S 21:54:00 28° S visible
18 Oct 5.6 22:08:20 10° SSW 22:12:01 37° SSW 22:12:01 37° SSW visible
